Lexington Weather

Lexington, Massachusetts, USA

73°F
9/22/2021 1:44pm 
  • Lexington Conditions: Overcast
  • Temperature: 73.0°F / 22.8°CColder 2.4°F than last hour.
  • Dew Point: 68.2°FDecreased 0.2°Fsince last hour.
  • Relative Humidity: 85%Increased 6.0% since last hour.
  • Wind: Wind from SSW SSW 2 mph, 10-min avg: 4 mph, gust: 12 mph
  • Barometer: 30.10 in Steady
  • Visibility: 10 miles
  • Rain Today: 0.00 in
  •   

Regional Weather Roundup
for Boston / Norton, MA

        
000
ASUS41 KBOX 172104
RWRBOX

REGIONAL WEATHER ROUNDUP
NATIONAL WEATHER SERVICE BOSTON/NORTON MA
500 PM EDT FRI SEP 17 2021

NOTE:  "FAIR" INDICATES FEW OR NO CLOUDS BELOW 12,000 FEET WITH NO 
SIGNIFICANT WEATHER AND/OR OBSTRUCTIONS TO VISIBILITY.

MAZALL-172200-
EASTERN MASSACHUSETTS
  
CITY           SKY/WX    TMP DP  RH WIND       PRES   REMARKS
BOSTON         CLOUDY    67  62  84 NE10      30.25F HAZE             
BEVERLY        CLOUDY    65  63  93 N7        30.25S                  
LAWRENCE       CLOUDY    65  61  87 NE8       30.27F                  
BEDFORD        CLOUDY    67  64  90 NE7       30.24F                  
BLUE HILL      NOT AVBL                                               
NORWOOD        CLOUDY    67  63  87 NE6       30.24F                  
MARSHFIELD     FOG       66  66 100 VRB3      30.24S VSB<1/4          
PLYMOUTH       FOG       67  65  93 NE10      30.23F VSB 1            
TAUNTON        CLOUDY    69  66  90 VRB5      30.23F                  
NEW BEDFORD    CLOUDY    72  68  87 NE8       30.21F                  
$$

MAZALL-172200-
CAPE COD AND THE ISLANDS
  
CITY           SKY/WX    TMP DP  RH WIND       PRES   REMARKS
FALMOUTH       PTSUNNY   75  70  83 E8        30.21F                  
HYANNIS        MOSUNNY   74  70  87 E6        30.19F                  
CHATHAM        PTSUNNY   72  68  87 E7        30.22F                  
PROVINCETOWN   CLOUDY    68  67  96 NE7       30.23F FOG              
NANTUCKET      PTSUNNY   76  69  79 NE13      30.19F                  
MARTHAS VNYRD  SUNNY     75  70  84 NE9       30.19F                  
$$
 
MAZALL-172200-
CENTRAL AND WESTERN MASSACHUSETTS
  
CITY           SKY/WX    TMP DP  RH WIND       PRES   REMARKS
WORCESTER      FOG       64  63  96 NE8       30.26F VSB 1/2          
FITCHBURG      CLOUDY    66  63  90 N5        30.27F                  
ORANGE         CLOUDY    70  64  81 E6        30.26F                  
SPRINGFIELD    CLOUDY    71  64  81 NE7       30.22F                  
WESTFIELD      CLOUDY    71  66  84 N7        30.23F                  
NORTH ADAMS    CLOUDY    72  64  76 E7        30.24F                  
PITTSFIELD     CLOUDY    70  64  81 SE5       30.24F                  
$$
 
RIZALL-172200-
RHODE ISLAND
  
CITY           SKY/WX    TMP DP  RH WIND       PRES   REMARKS
PROVIDENCE     CLOUDY    71  66  84 N12       30.22F                  
NEWPORT        CLOUDY    72  68  87 NE12      30.20F                  
BLOCK ISLAND   CLOUDY    70  68  93 NE9       30.20F                  
SMITHFIELD     CLOUDY    66  64  93 NE10      30.24F                  
WESTERLY       CLOUDY    72  69  90 NE8       30.19F                  
$$
 
CTZALL-172200-
CONNECTICUT
  
CITY           SKY/WX    TMP DP  RH WIND       PRES   REMARKS
BRADLEY INTL   CLOUDY    71  66  84 NE8       30.22F                  
HARTFORD       CLOUDY    73  66  78 NE7       30.20F                  
BRIDGEPORT     LGT RAIN  74  70  87 NE6       30.18F                  
DANBURY        CLOUDY    76  67  73 NE6       30.21F                  
GROTON         CLOUDY    76  69  79 NE9       30.18F                  
NEW HAVEN      CLOUDY    78  72  81 E9        30.18F                  
CHESTER          N/A     73  70  88 VRB3      30.20F                  
MERIDEN        CLOUDY    75  65  70 NE5       30.19F                  
WILLIMANTIC    CLOUDY    69  65  86 NE7       30.22F                  
OXFORD         PTSUNNY   72  67  84 E8        30.22F                  
$$

MEZ002-015-021-024-NHZ003-005-008-011-012-014-VTZ005-008-172200-
NORTHERN NEW ENGLAND
  
CITY           SKY/WX    TMP DP  RH WIND       PRES   REMARKS
PORTLAND ME    CLOUDY    65  56  72 NE3       30.28F                  
BANGOR ME      MOSUNNY   74  60  61 S8        30.26F                  
CONCORD NH     CLOUDY    67  62  84 E5        30.26F                  
MANCHESTER NH  CLOUDY    69  61  75 NE6       30.24F                  
NASHUA NH      CLOUDY    68  67  96 CALM      30.26F                  
PORTSMOUTH NH  CLOUDY    65  57  75 E5        30.27F                  
JAFFREY NH     CLOUDY    66  65  96 CALM      30.28F                  
KEENE NH       CLOUDY    69  64  84 E5        30.25F                  
BURLINGTON VT  PTSUNNY   75  64  68 S13       30.19F                  
MT. WASHINGTON FOG       52  52 100 S23G31      N/A  VSB 0            
$$

NYZ052-076-172200-
EASTERN NEW YORK
  
CITY           SKY/WX    TMP DP  RH WIND       PRES   REMARKS
ALBANY         PTSUNNY   70  66  87 NE5       30.21F                  
NEW YORK CITY  PTSUNNY   74  67  78 NE14      30.16F                  
$$
 
ANZALL-172200-
MARINE OBSERVATIONS
  
STATION/POSITION TIME  TEMP    WIND        PRES    VSBY  WAVE
                       AIR SEA DIR/SP/G                  HT/PER
                 (UTC) (F)     (DEG/KT/KT) (MB)    (MI)  (FT/S)
BOSTON BUOY      2040      66   20/ 12/ 14 1024.8F
BUZZARDS BAY     2000           40/ 12/ 13 1023.9S
NANTUCKET SOUND  2040   71 72   90/ 10/ 12 1022.7F
MASS BAY-STELLWA 2004   64      40/ 12/ 14 1024.5F  1 7/8  2/ 4
ISLE OF SHOALS   2000   63      50/ 13/ 14 1024.5F
S OF BLOCK IS    2026      70                N/A           5/ 8
$$

......................KEY.........................
  SKY/WX - SKY CONDITION/PRESENT WEATHER
  TMP    - TEMPERATURE IN FAHRENHEIT
  DWPT   - DEWPOINT IN FAHRENHEIT
  RH     - RELATIVE HUMIDITY IN PERCENT
  WIND   - DIRECTION AND SPEED IN MPH
  PRES   - MEAN SEA LEVEL PRESSURE IN INCHES OF HG
  WCI    - WIND CHILL INDEX
  VSB    - VISIBILITY IN MILES
  HX     - HEAT INDEX
  TC     - TEMPERATURE IN CELSIUS
  VRB    - VARIABLE WIND DIRECTION
  N/A    - NOT AVAILABLE
  
      

Other recent Regional Weather Roundups

Wed Sep 22, 1:04pm

Wed Sep 22, 12:05pm

Wed Sep 22, 11:04am

Wed Sep 22, 10:04am

Wed Sep 22, 9:04am

Wed Sep 22, 8:04am

Wed Sep 22, 7:04am

Wed Sep 22, 6:04am

Wed Sep 22, 5:04am

Wed Sep 22, 4:04am

Wed Sep 22, 3:04am

Wed Sep 22, 2:04am

Wed Sep 22, 1:04am

Wed Sep 22, 12:04am

Tue Sep 21, 11:04pm

Tue Sep 21, 10:04pm

Tue Sep 21, 9:04pm

Tue Sep 21, 8:04pm

Tue Sep 21, 7:04pm

Tue Sep 21, 6:04pm

Tue Sep 21, 5:04pm

Tue Sep 21, 4:04pm

Tue Sep 21, 3:04pm

Tue Sep 21, 2:04pm

Tue Sep 21, 1:04pm

Tue Sep 21, 12:04pm

Tue Sep 21, 11:04am

Tue Sep 21, 10:04am

Tue Sep 21, 9:04am

Tue Sep 21, 8:04am

Tue Sep 21, 7:04am

Tue Sep 21, 6:04am

Tue Sep 21, 5:04am

Tue Sep 21, 4:04am

Tue Sep 21, 3:04am

Tue Sep 21, 2:04am

Tue Sep 21, 1:04am

Tue Sep 21, 12:04am

Mon Sep 20, 11:04pm

Mon Sep 20, 10:04pm

Mon Sep 20, 9:04pm

Mon Sep 20, 8:04pm

Mon Sep 20, 7:04pm

Mon Sep 20, 6:04pm

Mon Sep 20, 5:04pm

Mon Sep 20, 4:04pm

Mon Sep 20, 3:04pm

Mon Sep 20, 2:04pm

Mon Sep 20, 1:04pm

Mon Sep 20, 12:04pm

Mon Sep 20, 11:04am

Mon Sep 20, 10:04am

Mon Sep 20, 9:04am

Mon Sep 20, 7:04am

Mon Sep 20, 6:04am

Mon Sep 20, 5:04am

Mon Sep 20, 4:04am

Mon Sep 20, 3:04am

Mon Sep 20, 2:04am

Mon Sep 20, 1:04am

Mon Sep 20, 12:04am

Sun Sep 19, 11:04pm

Sun Sep 19, 10:04pm

Sun Sep 19, 9:04pm

Sun Sep 19, 8:04pm

Sun Sep 19, 7:04pm

Sun Sep 19, 6:04pm

Sun Sep 19, 5:04pm

Sun Sep 19, 4:04pm

Sun Sep 19, 3:04pm

Sun Sep 19, 2:05pm

Sun Sep 19, 1:04pm

Sun Sep 19, 12:04pm

Sun Sep 19, 11:04am

Sun Sep 19, 10:05am

Sun Sep 19, 9:04am

Sun Sep 19, 8:04am

Sun Sep 19, 7:04am

Sun Sep 19, 6:04am

Sun Sep 19, 5:04am

Sun Sep 19, 4:04am

Sun Sep 19, 3:04am

Sun Sep 19, 2:04am

Sun Sep 19, 1:04am

Sun Sep 19, 12:04am

Sat Sep 18, 11:05pm

Sat Sep 18, 10:04pm

Sat Sep 18, 9:04pm

Sat Sep 18, 8:04pm

Sat Sep 18, 7:04pm

Sat Sep 18, 6:04pm

Sat Sep 18, 5:04pm

Sat Sep 18, 4:04pm

Sat Sep 18, 3:04pm

Sat Sep 18, 2:04pm

Sat Sep 18, 1:04pm

Sat Sep 18, 12:04pm

Sat Sep 18, 11:04am

Sat Sep 18, 10:04am

Sat Sep 18, 9:04am

Sat Sep 18, 8:04am

Sat Sep 18, 7:04am

Sat Sep 18, 6:04am

Sat Sep 18, 5:04am

Sat Sep 18, 4:04am

Sat Sep 18, 3:04am

Sat Sep 18, 2:04am

Sat Sep 18, 1:04am

Sat Sep 18, 12:04am

Fri Sep 17, 11:04pm

Fri Sep 17, 10:04pm

Fri Sep 17, 9:04pm

Fri Sep 17, 8:04pm

Fri Sep 17, 7:04pm

Fri Sep 17, 6:04pm

Fri Sep 17, 4:04pm

Fri Sep 17, 3:04pm

Fri Sep 17, 2:04pm

Fri Sep 17, 1:04pm

Fri Sep 17, 12:05pm

Fri Sep 17, 11:04am

Fri Sep 17, 10:04am

Fri Sep 17, 9:04am

Fri Sep 17, 8:04am

Fri Sep 17, 7:04am

Fri Sep 17, 6:04am

Fri Sep 17, 5:04am

Fri Sep 17, 4:04am

Fri Sep 17, 3:04am

Fri Sep 17, 2:04am

Fri Sep 17, 1:04am

Fri Sep 17, 12:04am

Thu Sep 16, 11:04pm

Thu Sep 16, 10:04pm

Thu Sep 16, 9:04pm

Thu Sep 16, 8:04pm

Thu Sep 16, 7:04pm

Thu Sep 16, 6:04pm

Thu Sep 16, 5:04pm

Thu Sep 16, 4:04pm

Thu Sep 16, 3:04pm

Thu Sep 16, 2:04pm

Thu Sep 16, 1:05pm

Thu Sep 16, 12:04pm

Thu Sep 16, 11:05am

Thu Sep 16, 10:05am

Thu Sep 16, 9:04am

Thu Sep 16, 8:04am

Thu Sep 16, 7:04am

Thu Sep 16, 6:04am

Thu Sep 16, 5:04am

Thu Sep 16, 4:04am

Thu Sep 16, 3:04am

Thu Sep 16, 2:04am

Thu Sep 16, 1:04am

Thu Sep 16, 12:04am

Wed Sep 15, 11:04pm

Wed Sep 15, 10:04pm

Wed Sep 15, 9:04pm

Wed Sep 15, 8:04pm

Wed Sep 15, 7:04pm

Wed Sep 15, 6:04pm

Wed Sep 15, 5:05pm

Wed Sep 15, 4:04pm

Wed Sep 15, 3:04pm

Wed Sep 15, 2:04pm

Meta data:

ID: 2907e555-c4a0-4278-add6-9d942789d547
Link: https://api.weather.gov/products/2907e555-c4a0-4278-add6-9d942789d547